Location: Jetmore
(38.0845°N, 99.8935°W)
Time: 20:10:15
(UTC+00:00)

Nauka - Pass Details

Date: 23 September 2021
Orbit: 418 x 423 km, 51.6° (Epoch: 14 October)

Event Time Altitude Azimuth Distance (km) Brightness Sun altitude
Rises 00:58:22 0° 268° (W) 2,354 ? -5.2°
Reaches altitude 10° 01:00:53 10° 287° (WNW) 1,494 ? -5.7°
Maximum altitude 01:03:21 19° 335° (NNW) 1,074 ? -6.2°
Drops below altitude 10° 01:05:50 10° 22° (NNE) 1,500 ? -6.7°
Enters shadow 01:08:45 -1° 43° (NE) 2,512 ? -7.3°
